Hourly Data Report for October 29, 2015

All times are specified in Local Standard Time (LST). Add 1 hour to adjust for Daylight Saving Time where and when it is observed.

CORAL HARBOUR A
NUNAVUT

64°11'36.000" N
83°21'34.000" W
62.20 m
2301002
71915
YZS

Download Data

Hourly Data (October 2015)
Hourly Data Report for October 29, 2015
Temp Definition
°C
Dew Point Temp Definition
°C
Rel Hum Definition
%
Wind Dir Definition
10's deg

Wind Spd Definition
km/h
Visibility Definition
km
Stn Press Definition
kPa
Hmdx Definition


Wind Chill Definition


Weather Definition


TIME
00:00 Legend Double Dagger -15.4 -17.7 83 36 13 24.1 100.14   -23 LegendNANA
01:00 Legend Double Dagger -14.8 -17.1 83 34 14 24.1 100.10   -22 Cloudy
02:00 Legend Double Dagger -15.1 -17.1 85 4 19 24.1 100.04   -24 LegendNANA
03:00 Legend Double Dagger -14.7 -17.1 82 4 25 24.1 100.01   -25 LegendNANA
04:00 Legend Double Dagger -13.9 -16.3 82 4 25 24.1 99.96   -24 Mostly Cloudy
05:00 Legend Double Dagger -13.5 -16.1 81 4 26 22.5 99.94   -23 LegendNANA
06:00 Legend Double Dagger -12.8 -15.6 80 5 24 24.1 99.93   -22 LegendNANA
07:00 Legend Double Dagger -13.1 -15.9 80 5 23 24.1 99.89   -22 Mostly Cloudy
08:00 Legend Double Dagger -12.9 -15.7 80 5 25 24.1 99.86   -22 LegendNANA
09:00 Legend Double Dagger -11.9 -14.8 79 3 23 24.1 99.82   -21 LegendNANA
10:00 Legend Double Dagger -11.4 -14.5 78 3 21 24.1 99.79   -20 Cloudy
11:00 Legend Double Dagger -11.1 -14.1 79 3 24 24.1 99.75   -20 LegendNANA
12:00 Legend Double Dagger -10.1 -12.9 80 3 22 24.1 99.73   -18 LegendNANA
13:00 Legend Double Dagger -9.5 -12.5 79 3 26 24.1 99.70   -18 Cloudy
14:00 Legend Double Dagger -9.4 -12.6 78 3 26 24.1 99.68   -18 LegendNANA
15:00 Legend Double Dagger -9.2 -12.0 80 2 24 24.1 99.66   -18 LegendNANA
16:00 Legend Double Dagger -8.7 -11.7 79 4 30 24.1 99.65   -18 Cloudy
17:00 Legend Double Dagger -8.7 -11.2 82 2 27 24.1 99.64   -17 LegendNANA
18:00 Legend Double Dagger -8.3 -10.7 83 3 34 24.1 99.63   -18 LegendNANA
19:00 Legend Double Dagger -8.1 -10.5 83 3 30 9.7 99.64   -17 Snow
20:00 Legend Double Dagger -7.9 -10.8 80 3 30 12.9 99.67   -17 Snow
21:00 Legend Double Dagger -8.3 -10.9 82 3 28 24.1 99.68   -17 Snow
22:00 Legend Double Dagger -8.3 -10.7 83 2 26 19.3 99.70   -17 Snow
23:00 Legend Double Dagger -11.2 -13.5 83 1 24 24.1 99.70   -20 Snow

Notes on Data Quality.

Legend

  • E = Estimated
  • M = Missing
  • NA = Not Available
  • ‡ = Partner data that is not subject to review by the National Climate Archives
Date modified: